Location: Usti nad Labem
(50.6670°N, 14.0330°E)
Time: 01:40:10
(UTC+02:00)

ISS - Visible Passes

Search period start: 01 August 2014 00:00
Search period end: 11 August 2014 00:00
Orbit: 411 x 419 km, 51.6° (Epoch: 31 July)

Date Brightness Start Highest point End Pass type
(mag) Time Alt. Az. Time Alt. Az. Time Alt. Az.
01 Aug -1.8 01:11:24 30° ENE 01:11:24 30° ENE 01:13:15 10° ENE visible
01 Aug -3.2 02:44:16 18° WNW 02:46:41 76° N 02:50:04 10° E visible
01 Aug -3.0 04:20:06 10° W 04:23:21 46° SSW 04:26:35 10° SE visible
02 Aug -3.1 01:57:26 63° NW 01:57:49 72° N 02:01:11 10° E visible
02 Aug -3.3 03:31:13 10° WNW 03:34:33 63° SSW 03:37:53 10° ESE visible
02 Aug -1.3 21:54:22 10° S 21:55:20 13° SSE 21:55:20 13° SSE visible
03 Aug -1.0 01:11:19 18° E 01:11:19 18° E 01:12:17 10° E visible
03 Aug -3.4 02:44:18 32° W 02:45:44 82° SSW 02:49:06 10° ESE visible
03 Aug -2.2 04:19:21 10° W 04:22:09 24° SW 04:24:56 10° SSE visible
03 Aug -2.8 22:40:19 10° SW 22:43:27 38° SSE 22:45:01 23° E visible
04 Aug -1.4 00:16:41 10° W 00:18:02 22° W 00:18:02 22° W visible
04 Aug -2.7 03:33:23 35° SSW 03:33:25 35° SSW 03:36:31 10° SE visible
04 Aug -2.3 21:51:51 10° SSW 21:54:42 27° SSE 21:57:35 10° E visible
04 Aug -3.4 23:27:48 10° WSW 23:31:09 86° SSE 23:32:12 41° E visible
05 Aug -0.7 01:04:36 10° W 01:05:07 14° W 01:05:07 14° W visible
05 Aug -3.4 22:38:58 10° WSW 22:42:17 68° SSE 22:45:27 11° ENE visible
06 Aug -2.6 00:15:42 10° W 00:18:19 50° WNW 00:18:19 50° WNW visible
06 Aug -3.1 21:50:13 10° SW 21:53:27 50° SSE 21:56:43 10° E visible
06 Aug -3.2 23:26:47 10° W 23:30:08 75° N 23:31:13 39° ENE visible
07 Aug -0.6 01:03:34 10° WNW 01:04:04 14° WNW 01:04:04 14° WNW visible
07 Aug -3.3 22:37:52 10° W 22:41:13 83° N 22:44:00 14° ENE visible
08 Aug -2.1 00:14:40 10° WNW 00:16:51 37° WNW 00:16:51 37° WNW visible
08 Aug -3.3 21:48:58 10° WSW 21:52:18 83° SSE 21:55:40 10° ENE visible
08 Aug -3.2 23:25:45 10° W 23:29:06 74° N 23:29:34 60° ENE visible
09 Aug -3.1 22:36:49 10° W 22:40:10 72° N 22:42:16 21° E visible
10 Aug -1.4 00:13:35 10° WNW 00:15:07 25° W 00:15:07 25° W visible
10 Aug -3.1 21:47:52 10° W 21:51:13 76° N 21:54:34 10° E visible
10 Aug -3.3 23:24:40 10° WNW 23:27:47 76° W 23:27:47 76° W visible
